Effective Sunday, March 17, 2024, the National Weather Service National Data Buoy Center will discontinue its Dial-A-Buoy Interactive Voice Response system. For more information, see Service Change Notice 24-06 (PDF).

Station OPTF1 - 8726607 - Old Port Tampa, FL Image indicating link to RSS feed of recent meteorological observations for station OPTF1


Conditions at OPTF1 as of
(1:48 am EST)
0648 GMT on 02/29/2024:
     

Click on the graph icon in the table below to see a time series plot of the last five days of that observation.

5-day plot - Wind Direction Wind Direction (WDIR):NNW ( 340 deg true )
5-day plot - Wind Speed Wind Speed (WSPD): 6.0 kts
5-day plot - Wind Gust Wind Gust (GST): 8.0 kts
5-day plot - Atmospheric Pressure Atmospheric Pressure (PRES):30.16 in
5-day plot - Air Temperature Air Temperature (ATMP): 67.8 °F
5-day plot - Water Temperature Water Temperature (WTMP): 73.9 °F
5-day plot - Wind Speed at 10 Meters Wind Speed at 10 meters (WSPD10M): 7.8 kts
5-day plot - Wind Speed at 20 Meters Wind Speed at 20 meters (WSPD20M): 7.8 kts
5-day plot -  Wind Speed, Wind Gust and Atmospheric Pressure Combined plot of Wind Speed, Gust, and Air Pressure
NOS Water Level Observation Network Water Level
Previous observations
TIME
(EST)
5-day plot - Wind Direction
WDIR
 
5-day plot - Wind Speed
WSPD
kts
5-day plot - Wind Gust
GST
kts
5-day plot - Wave Height
WVHT
ft
5-day plot - Dominant Wave Period
DPD
sec
5-day plot - Average Wave Period
APD
sec
5-day plot - Mean Wave Direction
MWD
 
5-day plot - Atmospheric Pressure
PRES
in
5-day plot - Pressure Tendency
PTDY
in
5-day plot - Air Temperature
ATMP
°F
5-day plot - Water Temperature
WTMP
°F
5-day plot - Dew Point
DEWP
°F
5-day plot - Salinity
SAL
psu
5-day plot - Visibility
VIS
nmi
5-day plot - Tide (above MLLW)
TIDE
ft
2024-02-29 01:42 am S 4.1 5.1----30.16- 67.6 74.1----
2024-02-29 01:36 am S 4.1 4.1----30.16- 67.5 74.1----
2024-02-29 01:30 am S 2.9 2.9----30.16- 67.6 74.1----
2024-02-29 01:24 amSSW 1.9 2.9----30.17- 68.0 74.1----
2024-02-29 01:18 am SW 1.9 1.9----30.17- 68.2 74.1----
2024-02-29 01:12 am- 0.0 2.9----30.17- 68.0 74.1----
2024-02-29 01:06 am S 2.9 5.1----30.17- 68.0 74.1----
2024-02-29 01:00 am S 4.1 5.1----30.17-0.03 68.0 74.1----
2024-02-29 12:54 am S 4.1 5.1----30.17- 68.0 74.1----
2024-02-29 12:48 am S 4.1 5.1----30.17- 68.2 74.1----
2024-02-29 12:42 am S 4.1 4.1----30.17- 68.2 74.1----
2024-02-29 12:36 am S 2.9 5.1----30.17- 68.4 74.1----
2024-02-29 12:30 am S 4.1 5.1----30.17- 68.5 74.1----
2024-02-29 12:24 am S 5.1 6.0----30.18- 68.9 74.1----
2024-02-29 12:18 am S 5.1 5.1----30.18- 68.9 74.1----
2024-02-29 12:12 am S 5.1 5.1----30.18- 68.9 74.1----
2024-02-29 12:06 amSSW 4.1 5.1----30.18- 68.7 74.1----
2024-02-29 12:00 am S 4.1 4.1----30.19+0.01 68.7 74.1----
2024-02-28 11:54 pm S 4.1 4.1----30.19- 68.7 74.1----
2024-02-28 11:48 pm S 2.9 4.1----30.19- 68.5 74.1----
2024-02-28 11:42 pm S 2.9 4.1----30.19- 68.4 74.1----
2024-02-28 11:36 pm S 2.9 2.9----30.19- 68.4 74.1----
2024-02-28 11:30 pmSSW 2.9 2.9----30.19- 68.4 74.1----
2024-02-28 11:24 pm S 2.9 2.9----30.19- 68.4 74.1----
2024-02-28 11:18 pm S 2.9 2.9----30.19- 68.4 74.1----
2024-02-28 11:12 pm S 1.9 1.9----30.19- 68.4 74.1----
2024-02-28 11:06 pm S 1.9 1.9----30.19- 68.4 74.1----
2024-02-28 11:00 pm S 1.9 1.9----30.19+0.04 68.5 74.1----
2024-02-28 10:54 pm S 1.9 1.9----30.19- 68.7 74.1----
2024-02-28 10:48 pm S 1.9 1.9----30.19- 68.5 74.1----
2024-02-28 10:42 pmSSE 1.9 1.9----30.19- 68.5 74.1----
2024-02-28 10:36 pm S 1.0 1.9----30.19- 68.4 74.1----
2024-02-28 10:30 pmSSE 1.9 1.9----30.19- 68.7 74.1----
2024-02-28 10:24 pm S 1.0 1.9----30.19- 68.7 74.1----
2024-02-28 10:18 pm S 1.0 2.9----30.19- 68.9 74.1----
2024-02-28 10:12 pm SW 2.9 2.9----30.19- 69.4 74.1----
2024-02-28 10:06 pm SW 2.9 4.1----30.19- 69.4 74.1----
2024-02-28 10:00 pm SW 2.9 4.1----30.19+0.06 69.4 74.1----
2024-02-28 09:54 pmSSW 2.9 2.9----30.19- 69.3 74.1----
2024-02-28 09:48 pm SW 1.9 2.9----30.19- 69.4 74.1----
2024-02-28 09:42 pmSSW 1.9 2.9----30.19- 69.4 73.9----
2024-02-28 09:36 pmSSW 1.9 2.9----30.18- 69.4 73.9----
2024-02-28 09:30 pmSSW 1.9 2.9----30.18- 69.4 73.9----
2024-02-28 09:24 pm S 2.9 2.9----30.18- 69.4 73.9----
2024-02-28 09:18 pm S 2.9 4.1----30.18- 69.4 73.9----
2024-02-28 09:12 pmSSW 2.9 4.1----30.18- 69.4 73.9----
2024-02-28 09:06 pm S 2.9 2.9----30.18- 69.3 73.9----
2024-02-28 09:00 pmSSW 2.9 4.1----30.18+0.04 69.4 73.9----
2024-02-28 08:54 pmSSW 2.9 2.9----30.17- 69.4 73.9----
2024-02-28 08:48 pmSSW 1.9 2.9------------
2024-02-28 08:42 pmSSW 2.9 4.1----30.17- 69.6 73.9----
2024-02-28 08:36 pmSSW 2.9 4.1----30.17- 69.6 73.9----
2024-02-28 08:30 pm S 2.9 4.1----30.16- 69.4 73.9----
2024-02-28 08:24 pmSSW 2.9 4.1----30.16- 69.6 73.9----
2024-02-28 08:18 pmSSW 4.1 4.1----30.16- 69.8 73.9----
2024-02-28 08:12 pmSSW 2.9 5.1----30.16- 69.8 73.9----
2024-02-28 08:06 pmSSW 2.9 4.1----30.16- 69.6 73.9----
2024-02-28 08:00 pmSSW 4.1 5.1----30.15+0.03 69.6 73.9----
2024-02-28 07:54 pmSSW 4.1 5.1----30.15- 69.8 73.9----
2024-02-28 07:48 pmSSW 5.1 5.1----30.15- 69.6 73.8----
2024-02-28 07:42 pmSSW 4.1 5.1----30.15- 69.6 73.8----
2024-02-28 07:36 pmSSW 5.1 6.0----30.14- 69.6 73.8----
2024-02-28 07:30 pmSSW 5.1 5.1----30.14- 69.8 73.8----
2024-02-28 07:24 pmSSW 5.1 6.0----30.14- 69.8 73.8----
2024-02-28 07:18 pmSSW 5.1 6.0----30.14- 69.8 73.8----
2024-02-28 07:12 pmSSW 5.1 6.0----30.14- 69.8 73.8----
2024-02-28 07:06 pmSSW 6.0 7.0----30.14- 70.0 73.8----
2024-02-28 07:00 pmSSW 7.0 8.0----30.14+0.02 70.2 73.6----
2024-02-28 06:54 pmSSW 7.0 8.0----30.14- 70.3 73.6----
2024-02-28 06:48 pmSSW 7.0 8.0------ 70.3 73.6----
2024-02-28 06:42 pmSSW 7.0 8.0------ 70.5 73.6----
2024-02-28 06:36 pmSSW 7.0 8.0------ 70.3 73.6----
2024-02-28 06:30 pm-------30.14-- 73.6----
2024-02-28 06:24 pm-------30.14-- 73.6----
2024-02-28 06:18 pm-------30.14-- 73.8----
2024-02-28 06:00 pm SW 9.9 12.0----30.14+0.03 71.4 73.8----
2024-02-28 05:54 pmSSW 11.1 12.0----30.14- 71.6 73.8----
2024-02-28 05:48 pmSSW 11.1 12.0----30.14- 71.4 73.8----
2024-02-28 05:42 pmSSW 12.0 13.0----30.14- 71.6 73.6----
2024-02-28 05:36 pmSSW 11.1 12.0----30.13- 71.4 73.6----
2024-02-28 05:30 pm SW 9.9 12.0----30.13- 71.8 73.6----
2024-02-28 05:24 pm SW 9.9 11.1----30.13- 71.6 73.4----
2024-02-28 05:18 pm SW 9.9 12.0----30.13- 71.6 73.4----
2024-02-28 05:12 pm SW 9.9 11.1----30.13- 71.4 73.6----
2024-02-28 05:06 pmSSW 11.1 12.0----30.12- 71.6 73.6----
2024-02-28 05:00 pmSSW 11.1 12.0----30.12+0.01 71.4 73.6----
2024-02-28 04:54 pm SW 11.1 13.0----30.12- 72.0 73.6----
2024-02-28 04:48 pmSSW 11.1 13.0----30.12- 71.6 73.8----
2024-02-28 04:42 pmSSW 12.0 13.0----30.12- 71.4 73.8----
2024-02-28 04:36 pmSSW 11.1 13.0----30.12- 71.6 73.8----
2024-02-28 04:30 pmSSW 11.1 13.0----30.12- 71.6 73.9----
2024-02-28 04:24 pmSSW 12.0 15.0----30.12- 71.6 74.1----
2024-02-28 04:18 pmSSW 13.0 14.0----30.12- 71.6 74.3----
2024-02-28 04:12 pmSSW 13.0 14.0----30.12- 71.6 74.3----
2024-02-28 04:06 pmSSW 12.0 14.0----30.12- 71.8 74.5----
2024-02-28 04:00 pmSSW 13.0 15.0----30.11-0.01 71.8 74.5----
2024-02-28 03:54 pmSSW 13.0 15.0----30.11- 71.8 74.5----
2024-02-28 03:48 pmSSW 13.0 15.0----30.11- 71.8 74.5----
2024-02-28 03:42 pmSSW 13.0 14.0----30.11- 71.8 74.5----
2024-02-28 03:36 pmSSW 13.0 15.0----30.11- 71.8 74.5----
2024-02-28 03:30 pmSSW 13.0 14.0----30.11- 71.6 74.7----
2024-02-28 03:24 pmSSW 13.0 14.0----30.11- 71.4 74.7----
2024-02-28 03:18 pmSSW 12.0 13.0----30.11- 71.2 74.7----
2024-02-28 03:12 pmSSW 11.1 13.0----30.11- 71.2 74.7----
2024-02-28 03:06 pm SW 9.9 12.0----30.11- 71.1 74.7----
2024-02-28 03:00 pmSSW 9.9 11.1----30.11-0.03 71.1 74.7----
2024-02-28 02:54 pmSSW 9.9 12.0----30.11- 71.1 74.7----
2024-02-28 02:48 pmSSW 11.1 13.0----30.11- 71.1 74.7----
2024-02-28 02:42 pm SW 11.1 12.0----30.11- 71.1 74.7----
2024-02-28 02:36 pmSSW 9.9 12.0----30.11- 71.1 74.8----
2024-02-28 02:30 pmSSW 9.9 12.0----30.11- 70.9 75.0----
2024-02-28 02:24 pmSSW 11.1 12.0----30.11- 70.9 75.2----
2024-02-28 02:18 pm SW 9.9 12.0----30.11- 70.7 75.4----
2024-02-28 02:12 pm SW 11.1 12.0----30.11- 70.7 75.2----
2024-02-28 02:06 pm SW 8.9 11.1----30.11- 70.7 75.0----
2024-02-28 02:00 pmSSW 9.9 12.0----30.11-0.03 70.7 75.0----
2024-02-28 01:54 pmSSW 9.9 12.0----30.11- 70.7 74.8----
2024-02-28 01:48 pmSSW 9.9 12.0----30.11- 70.7 74.8----
2024-02-28 01:42 pmSSW 11.1 12.0----30.11- 70.7 74.8----
2024-02-28 01:36 pmSSW 11.1 14.0----30.11- 70.7 74.8----
2024-02-28 01:30 pmSSW 12.0 13.0----30.11- 70.7 74.7----
2024-02-28 01:24 pmSSW 11.1 13.0----30.12- 70.7 74.7----
2024-02-28 01:18 pmSSW 12.0 14.0----30.12- 70.9 74.5----
2024-02-28 01:12 pmSSW 13.0 14.0----30.11- 70.9 74.5----
2024-02-28 01:06 pmSSW 13.0 14.0----30.12- 70.9 74.5----
2024-02-28 01:00 pmSSW 11.1 13.0----30.12-0.02 70.7 74.3----
2024-02-28 12:54 pmSSW 11.1 14.0----30.13- 70.5 74.3----
2024-02-28 12:48 pmSSW 12.0 13.0----30.14- 70.7 74.1----
2024-02-28 12:42 pmSSW 12.0 14.0----30.13- 70.7 74.1----
2024-02-28 12:36 pmSSW 13.0 15.0----30.13- 70.9 74.1----
2024-02-28 12:30 pmSSW 12.0 14.0----30.13- 70.7 73.9----
2024-02-28 12:24 pmSSW 12.0 13.0----30.13- 70.7 73.9----
2024-02-28 12:18 pmSSW 12.0 13.0----30.14- 70.5 73.8----
2024-02-28 12:12 pmSSW 11.1 13.0----30.14- 70.7 73.8----
2024-02-28 12:06 pmSSW 11.1 13.0----30.14- 70.5 73.6----
2024-02-28 12:00 pmSSW 12.0 14.0----30.14+0.00 70.7 73.4----
2024-02-28 11:54 amSSW 12.0 13.0----30.14- 70.7 73.4----
2024-02-28 11:48 amSSW 11.1 12.0----30.14- 70.7 73.2----
2024-02-28 11:42 amSSW 11.1 13.0----30.14- 70.9 73.0----
2024-02-28 11:36 amSSW 8.0 9.9----30.14- 70.7 73.0----
2024-02-28 11:30 amSSW 6.0 8.0----30.15- 70.0 73.0----
2024-02-28 11:24 amSSW 5.1 8.9----30.15- 69.6 72.9----
2024-02-28 11:18 amSSW 7.0 8.0----30.14- 70.0 72.9----
2024-02-28 11:12 amSSW 7.0 9.9----30.15- 69.8 72.9----
2024-02-28 11:06 amSSW 8.0 11.1----30.14- 70.3 72.9----
2024-02-28 11:00 amSSW 8.0 11.1----30.14+0.03 71.1 72.7----
2024-02-28 10:54 am S 8.9 13.0----30.14- 71.6 72.7----
2024-02-28 10:48 am S 9.9 12.0----30.14- 71.6 72.7----
2024-02-28 10:42 am S 8.9 11.1----30.14- 71.4 72.7----
2024-02-28 10:36 am S 8.9 13.0----30.14- 71.4 72.7----
2024-02-28 10:30 am S 8.9 12.0----30.14- 71.2 72.7----
2024-02-28 10:24 am S 8.0 11.1----30.14- 70.7 72.5----
2024-02-28 10:18 am S 8.9 12.0----30.14- 70.5 72.5----
2024-02-28 10:12 am S 8.9 12.0----30.14- 70.3 72.5----
2024-02-28 10:06 am S 8.0 11.1----30.14- 69.4 72.5----
2024-02-28 10:00 am S 7.0 9.9----30.14+0.04 68.9 72.5----
2024-02-28 09:54 am S 6.0 8.9----30.14- 68.7 72.5----
2024-02-28 09:48 amSSE 6.0 8.9----30.14- 68.5 72.5----
2024-02-28 09:42 amSSE 7.0 9.9----30.14- 68.2 72.5----
2024-02-28 09:36 amSSE 7.0 8.9----30.15- 68.4 72.5----
2024-02-28 09:30 amSSE 7.0 9.9----30.15- 68.0 72.5----
2024-02-28 09:24 amSSE 8.0 11.1----30.15- 67.8 72.5----
2024-02-28 09:18 amSSE 8.0 12.0----30.15- 67.6 72.5----
2024-02-28 09:12 amSSE 8.9 12.0----30.14- 67.5 72.5----
2024-02-28 09:06 amSSE 9.9 12.0----30.14- 67.3 72.5----
2024-02-28 09:00 amSSE 9.9 13.0----30.14+0.06 67.1 72.5----
2024-02-28 08:54 amSSE 11.1 14.0----30.14- 67.1 72.5----
2024-02-28 08:48 amSSE 9.9 14.0----30.13- 67.1 72.5----
2024-02-28 08:42 amSSE 11.1 14.0----30.13- 66.7 72.5----
2024-02-28 08:36 amSSE 11.1 14.0----30.12- 66.6 72.5----
2024-02-28 08:30 amSSE 9.9 13.0----30.12- 66.4 72.5----
2024-02-28 08:24 amSSE 8.9 11.1----30.12- 66.2 72.5----
2024-02-28 08:18 amSSE 8.0 9.9----30.12- 65.8 72.5----
2024-02-28 08:12 amSSE 8.9 12.0----30.12- 65.8 72.5----
2024-02-28 08:06 amSSE 8.0 12.0----30.12- 66.0 72.5----
2024-02-28 08:00 amSSE 8.9 12.0----30.12+0.02 66.0 72.5----
2024-02-28 07:54 amSSE 8.0 12.0----30.11- 65.8 72.5----
2024-02-28 07:48 amSSE 8.0 12.0----30.11- 65.7 72.5----
2024-02-28 07:42 amSSE 8.0 12.0----30.11- 65.3 72.5----
2024-02-28 07:36 amSSE 7.0 11.1----30.11- 64.9 72.5----
2024-02-28 07:30 amSSE 8.0 11.1----30.10- 64.6 72.5----
2024-02-28 07:24 amSSE 8.0 11.1----30.10- 64.2 72.5----
2024-02-28 07:18 amSSE 8.0 11.1----30.09- 64.0 72.5----
2024-02-28 07:12 amSSE 8.9 12.0----30.09- 63.9 72.5----
2024-02-28 07:06 amSSE 8.0 13.0----30.10- 63.7 72.5----
2024-02-28 07:00 amSSE 8.0 12.0----30.10+0.01 63.7 72.5----
2024-02-28 06:54 amSSE 8.0 12.0----30.09- 63.5 72.5----
2024-02-28 06:48 am SE 7.0 12.0----30.09- 63.5 72.5----
2024-02-28 06:42 amSSE 8.9 12.0----30.09- 63.5 72.5----
2024-02-28 06:36 amSSE 8.0 11.1----30.09- 63.3 72.5----
2024-02-28 06:30 am SE 8.0 11.1----30.09- 63.3 72.5----
2024-02-28 06:24 amSSE 8.9 13.0----30.08- 63.5 72.5----
2024-02-28 06:18 amSSE 8.0 12.0----30.09- 63.7 72.5----
2024-02-28 06:12 amSSE 8.9 12.0----30.08- 63.9 72.5----
2024-02-28 06:06 am SE 8.0 12.0----30.08- 63.7 72.5----
2024-02-28 06:00 am SE 8.0 15.0----30.08-0.03 63.9 72.5----
2024-02-28 05:54 am SE 8.9 12.0----30.08- 64.0 72.5----
2024-02-28 05:48 amSSE 8.0 13.0----30.08- 64.4 72.5----
2024-02-28 05:42 amSSE 8.0 12.0----30.07- 64.2 72.5----
2024-02-28 05:36 amSSE 8.9 14.0----30.08- 64.2 72.5----
2024-02-28 05:30 am SE 8.0 12.0----30.08- 64.2 72.5----
2024-02-28 05:24 amSSE 8.0 12.0----30.09- 64.0 72.5----
2024-02-28 05:18 am SE 8.0 9.9----30.09- 64.0 72.7----
2024-02-28 05:12 am SE 7.0 9.9----30.09- 63.9 72.7----
2024-02-28 05:06 am SE 5.1 8.0----30.09- 63.3 72.7----
2024-02-28 05:00 am SE 5.1 7.0----30.10-0.01 63.3 72.7----
2024-02-28 04:54 am SE 5.1 7.0----30.09- 63.3 72.7----
2024-02-28 04:48 am SE 6.0 8.0----30.09- 63.3 72.7----
2024-02-28 04:42 am SE 5.1 8.0----30.09- 63.3 72.7----
2024-02-28 04:36 am SE 5.1 6.0----30.09- 63.0 72.7----
2024-02-28 04:30 am SE 6.0 8.9----30.09- 63.0 72.7----
2024-02-28 04:24 am SE 5.1 8.9----30.09- 62.6 72.7----
2024-02-28 04:18 am SE 5.1 8.9----30.08- 62.6 72.7----
2024-02-28 04:12 am SE 6.0 7.0----30.08- 62.6 72.7----
2024-02-28 04:06 am SE 5.1 7.0----30.09- 62.6 72.7----
2024-02-28 04:00 am SE 5.1 8.0----30.09-0.03 63.0 72.7----
2024-02-28 03:54 am SE 5.1 8.0----30.09- 63.3 72.7----
2024-02-28 03:48 am SE 5.1 7.0----30.09- 63.5 72.7----
2024-02-28 03:42 am SE 5.1 8.0----30.09- 63.7 72.5----
2024-02-28 03:36 am SE 6.0 9.9----30.09- 63.9 72.5----
2024-02-28 03:30 amSSE 8.0 11.1----30.09- 64.0 72.5----
2024-02-28 03:24 amSSE 8.0 12.0----30.10- 64.2 72.5----
2024-02-28 03:18 amSSE 8.9 11.1----30.10- 64.2 72.5----
2024-02-28 03:12 amSSE 8.0 8.9----30.10- 64.2 72.5----
2024-02-28 03:06 amSSE 7.0 9.9----30.10- 64.4 72.7----
2024-02-28 03:00 amSSE 7.0 9.9----30.10-0.02 64.4 72.7----
2024-02-28 02:54 am SE 7.0 8.9----30.10- 64.2 72.7----
2024-02-28 02:48 am SE 6.0 8.0----30.10- 64.2 72.7----
2024-02-28 02:42 am SE 5.1 8.0----30.10- 64.0 72.7----
2024-02-28 02:36 am SE 5.1 7.0----30.10- 63.7 72.7----
2024-02-28 02:30 am SE 5.1 8.0----30.10- 63.9 72.7----
2024-02-28 02:24 am SE 5.1 7.0----30.10- 63.9 72.7----
2024-02-28 02:18 am SE 5.1 7.0----30.10- 63.9 72.7----
2024-02-28 02:12 am SE 5.1 8.0----30.10- 63.9 72.7----
2024-02-28 02:06 am SE 6.0 9.9----30.10- 63.7 72.7----
2024-02-28 02:00 am SE 5.1 7.0----30.11+0.00 63.5 72.7----
2024-02-28 01:54 am SE 4.1 7.0----30.11- 63.7 72.7----